Location: Brienzwiler
(46.7508°N, 8.1014°E)
Time: 01:32:57
(UTC+00:00)

Cosmos 1420 Rocket - Pass Details

Date: 05 July 2020
Orbit: 754 x 781 km, 74.0° (Epoch: 11 August)

Event Time Altitude Azimuth Distance (km) Brightness Sun altitude
Rises 22:50:51 0° 339° (NNW) 3,250 8.8 -20.0°
Reaches altitude 10° 22:53:15 10° 341° (NNW) 2,323 7.7 -20.0°
Maximum altitude 22:58:31 76° 66° (ENE) 804 4.1 -20.2°
Enters shadow 23:00:34 38° 145° (SE) 1,167 4.5 -20.2°
